www.pogodaiklimat.ru

Погода и климат >> Архив погоды >> Россия >> Красноярский край >> Сухобузимское


ПОГОДА в Сухобузимском

  • Прогноз погоды в Сухобузимском
  • Монитор погоды в Сухобузимском

АРХИВ ПОГОДЫ в Сухобузимском

Время (UTC), дата Ветер
(напр.,м/с)
 
Видим.   Явления Облачность Т
(С)
Тd
(С)
f
(%)
Тe
(С)
Тes
(С)
Комфортность P
(гПа)
Po
(гПа)
Тmin
(С)
Tmax
(С)
R
(мм)
R24
(мм)
S
(см)
18 13.06 штиль 0 20 км ясно +15.4 +10.1 71 +15 +15 1001.3 982.1
21 13.06 штиль 0 50 км ясно +12.3 +9.1 81 +12 +12 1001.1 981.7
00 14.06 штиль 0 50 км ясно +21.3 +13.4 61 +24 +28 комфорт 1000.6 981.8 +11.6
03 14.06 ЮЗ 4 50 км 6/0 2000 м
[Ac trans Ci fib]
+28.3 +13.4 40 +30 +35 жарко 999.0 980.7
06 14.06 З 4
{10}
50 км 8/4 600 м
[Cb cap Ac trans Ci fib]
+28.4 +13.9 41 +30 +35 жарко 998.8 980.5
09 14.06 З 4
{11}
50 км 9/8 600 м
[Cb cap Ac cuf]
+26.8 +15.2 49 +30 +31 душно 1000.0 981.6
12 14.06 СЗ 3 50 км 8/3 1000 м
[Cu med, cong Ci fib]
+25.5 +14.9 52 +28 +29 жарко 1001.7 983.2 +29.6
15 14.06 СЗ 1 50 км 4/3 600 м
[Cb cap Ci fib]
+20.5 +12.7 61 +24 +24 комфорт 1003.4 984.5
18 14.06 З 1 20 км 6/4 600 м
[Cb cap Ac trans Ci fib]
+14.9 +11.4 80 +15 +15 1005.1 985.8
21 14.06 Ю 1 50 км 8/5 600 м
[Cb cap Ac As]
+14.3 +10.9 80 +15 +15 1005.5 986.2
00 15.06 В 1 50 км 6/4 1000 м
[Sc Ac lent]
+17.6 +11.3 67 +19 +20 1005.4 986.3 +13.6
03 15.06 СВ 3 50 км 8/3 1000 м
[Sc Ci fib]
+20.1 +13.7 67 +23 +28 комфорт 1004.2 985.3
06 15.06 СВ 2 50 км 8/6 600 м
[Cb cap Ci fib]
+24.8 +16.2 59 +28 +34 жарко 1002.2 983.6
09 15.06 В 2 20 км в посл. час гроза {ливн. осадки} 9/9 600 м
[Cb cap]
+19.4 +18.1 92 +22 +23 комфорт 1003.5 984.7
12 15.06 С 2 50 км {гроза, ливн. осадки} 9/3 600 м
[Cb cap Cc]
+21.1 +17.0 77 +25 +26 комфорт 1004.7 985.8 +25.0 32
15 15.06 С 2 20 км 9/8 600 м
[Cb cap Ci fib]
+19.1 +14.8 76 +21 +21 комфорт 1005.4 986.4
18 15.06 С 2 20 км 9/9 600 м
[Cb cap]
+17.0 +13.1 78 +17 +17 1006.3 987.2
21 15.06 штиль 0 50 км 8/4 600 м
[Cb cap Ac trans]
+15.1 +11.9 81 +15 +15 1005.5 986.2
00 16.06 В 1 50 км 10/8 600 м
[Cb cap Ac As]
+15.6 +12.6 82 +16 +16 1005.5 986.3 +14.6
03 16.06 штиль 0 50 км 10/8 600 м
[Cb cap Ac As]
+19.4 +15.2 77 +21 +22 комфорт 1004.2 985.3
06 16.06 ЮВ 2 50 км 9/8 1000 м
[Cu hum Cs]
+23.9 +17.4 67 +28 +31 душно 1002.4 983.8
09 16.06 ЮВ 1 50 км 9/8 600 м
[Cb cap Ac As]
+26.2 +18.0 61 +31 +32 очень
душно
1000.5 982.0
12 16.06 ЮЗ 1 50 км {ливн. осадки} 9/9 600 м
[Cb cap]
+23.2 +19.9 82 +30 +30 очень
душно
1001.1 982.5 +26.9 0.0
15 16.06 Ю 1 20 км {ливн. осадки} 9/0
[Cs]
+19.7 +16.9 84 +23 +23 комфорт 1001.3 982.5
18 16.06 З 1 20 км гроза, ливневой дождь 6/6 600 м
[Cb cap]
+18.6 +16.7 89 +21 +21 комфорт 1001.6 982.7
21 16.06 ЮЗ 3 20 км {гроза, ливн. осадки} 9/3 600 м
[Cb cap Ac cuf Cs]
+17.2 +14.6 85 +17 +17 1002.8 983.7
00 17.06 З 2 50 км 9/9 600 м
[Cb cap]
+15.8 +12.7 82 +16 +16 1005.5 986.3 +15.5 4
03 17.06 З 6
{10}
20 км 10/10 600 м
[Cb cap]
+14.6 +10.0 74 +13 +13 1007.8 988.5 +14.6
06 17.06 ЮЗ 5
{10}
20 км {ливн. осадки} 10/8 600 м
[Cb cap As op]
+15.1 +10.8 75 +14 +14 1009.2 989.9
09 17.06 ЮЗ 7
{13}
50 км 9/9 600 м
[Cb cap]
+16.5 +8.7 60 +15 +16 1010.4 991.1
12 17.06 З 4
{13}
50 км {ливн. осадки} 8/8 600 м
[Cb cap]
+15.5 +8.5 63 +15 +15 1012.2 992.9 +17.4 0.7
15 17.06 ЮЗ 2 20 км 4/0 2000 м
[Ac trans]
+12.3 +7.8 74 +11 +11 1014.0 994.3
18 17.06 ЮЗ 1 20 км ясно +7.4 +6.0 91 +6 +6 1014.8 994.8
21 17.06 штиль 0 20 км ясно +5.0 +3.8 92 +4 +4 1015.3 995.1
00 18.06 СВ 1 50 км ясно +12.5 +8.2 75 +13 +16 1015.4 995.7 +4.4
03 18.06 ЮВ 2 50 км 3/0
[Ci fib]
+19.1 +10.1 56 +20 +31 1014.5 995.3
06 18.06 ЮВ 4 50 км 6/4 1000 м
[Cu med, cong Ci fib]
+22.3 +8.0 40 +23 +29 комфорт 1012.4 993.5
09 18.06 ЮВ 4 50 км 3/3 1000 м
[Cu med, cong Ci fib]
+24.3 +7.4 34 +25 +29 комфорт 1010.0 991.3
12 18.06 В 4 50 км 4/0
[Ci fib]
+24.0 +6.8 33 +24 +25 комфорт 1008.3 989.5 +24.8
15 18.06 штиль 0 20 км 8/0
[Ci fib]
+17.6 +8.4 55 +18 +18 1007.9 988.7
18 18.06 СВ 2 20 км 3/0
[Ci fib]
+15.6 +7.8 60 +16 +16 1006.0 986.7
21 18.06 СВ 1 20 км 4/0
[Ci fib]
+10.9 +7.4 79 +11 +11 1004.9 985.4
00 19.06 СВ 1 20 км 8/3 600 м
[Cb cap Ac As Ci fib]
+17.9 +10.6 62 +19 +21 1003.7 984.6 +10.6
03 19.06 Ю 4 50 км 8/4 600 м
[Cb cap Ac trans Ci fib]
+21.7 +11.2 51 +24 +27 комфорт 1004.5 985.7
06 19.06 ЮЗ 3 50 км 8/3 600 м
[Cb cap Cc]
+25.5 +13.0 46 +27 +35 жарко 1005.1 986.5
09 19.06 З 6
{11}
50 км 8/4 600 м
[Cb cap Ci fib]
+24.5 +10.5 41 +26 +28 жарко 1006.7 988.0
12 19.06 ЮЗ 4
{11}
50 км 4/3 600 м
[Cb cap Ci fib]
+23.6 +8.8 39 +24 +25 комфорт 1008.5 989.8 +26.8
15 19.06 З 1 50 км 4/3 600 м
[Cb cap Ci fib]
+17.5 +8.1 54 +19 +19 1011.7 992.5
18 19.06 З 1 20 км ясно +11.5 +6.6 72 +11 +11 1014.2 994.5
21 19.06 штиль 0 50 км ясно +7.9 +5.4 84 +7 +7 1016.2 996.2
00 20.06 З 1 50 км ясно +13.9 +8.3 69 +14 +18 1017.0 997.4 +7.4
03 20.06 ЮЗ 1 50 км 4/4 1000 м
[Cu hum]
+20.9 +8.1 44 +23 +31 комфорт 1016.4 997.3
06 20.06 Ю 3 50 км 8/8 600 м
[Cb cap]
+23.3 +7.4 36 +24 +27 комфорт 1015.8 996.8
09 20.06 З 1 50 км 8/8 600 м
[Cb cap]
+24.7 +7.8 34 +25 +27 комфорт 1014.8 996.0
12 20.06 штиль 0 50 км 4/4 1000 м
[Cu hum]
+24.8 +6.5 31 +25 +26 комфорт 1014.4 995.6 +25.1
15 20.06 В 1 20 км 3/0 2000 м
[Ac cuf]
+18.8 +10.3 58 +21 +21 комфорт 1015.4 996.2

 

Местоположение метеостанции Сухобузимское (Красноярский край, Россия): широта 56.50 долгота 93.28 высота над уровнем моря 164 м.

В архиве по умолчанию представлена погода в Сухобузимском за последнюю неделю. Архивные данные за месяц целиком и за предыдущие месяцы, начиная с января 2011 года, Вы можете получить, выбрав интересующий диапазон дат из раскрывающегося списка и нажав кнопку "Ввод!".


*Определитесь, кто Вы:
робот инопланетянин человек

Внимание! Время в таблицах - всемирное. Для получения местного времени необходимо прибавить поправку, которая равна 7 ч.

Смотрите также архив погоды в соседних городах и на ближайших метеорологических станциях:

Погода в Погорельском Бору (Красноярский край, Россия) (25 км)
Погода в Железногорске (Красноярский край, Россия) (31 км)
Погода в Большой Мурте (Красноярский край, Россия) (45 км)
Погода в Минино (Красноярский край, Россия) (59 км)
Погода в Емельяново (Красноярский край, Россия) (61 км)
Погода в Красноярске (Красноярский край, Россия) (62 км)
Погода в Роевом Ручье (Красноярский край, Россия) (68 км)
Погода в Каче (Красноярский край, Россия) (79 км)
Погода в Шумихе (Красноярский край, Россия) (86 км)
Погода в Шалинском (Красноярский край, Россия) (92 км)

Пояснения к столбцам:

Ветер - указаны скорость ветра в м/с - средняя за 10 мин, порывы в срок и между сроками (в фигурных скобках) и направление, откуда дует ветер: С - северный, СВ - северо-восточный, В - восточный, ЮВ - юго-восточный, Ю - южный, ЮЗ - юго-западный, З - западный, СЗ - северо-западный.
Видимость - горизонтальная дальность видимости в метрах или километрах. При видимости от 1 до 10 км при отсутствии осадков обычно наблюдается дымка, при ухудшении видимости до 1 км и менее - туман. В сухую погоду видимость может ухудшаться дымом, пылью или мглою.
Явления - указаны атмосферные явления, наблюдавшиеся в срок или в последний час перед сроком; фигурными скобками обозначены явления, наблюдавшиеся между сроками (за 1-3 часа до срока); квадратными скобками обозначены град или гололедные отложения с указанием их диаметра в мм.
Облачность - указаны через наклонную черту общая и нижняя облачность в баллах и высота нижней границы облаков в метрах; квадратными скобками обозначены формы облаков: Ci - перистые, Cs - перисто-слоистые, Cc - перисто-кучевые, Ac - высококучевые, As - высокослоистые, Sc - слоисто-кучевые, Ns - слоисто-дождевые, Cu - кучевые, Cb - кучево-дождевые. Подробнее классификацию облаков см. в Атласе облаков (PDF).
T - Температура воздуха - температура, измеренная на высоте 2 м над землей.
Td - Температура точки росы - температура, при понижении до которой содержащийся в воздухе водяной пар достигнет насыщения.
f - Относительная влажность воздуха - влажноcть воздуха, измеренная на высоте 2 м над землей.
Te - Эффективная температура - температура, которую ощущает одетый по сезону человек в тени. Характеристика душности погоды. При расчете учитывается влияние влажности воздуха и скорости ветра на теплоощущения человека.
Tes - Эффективная температура на солнце - температура, которую ощущает человек, с поправкой на солнечный нагрев. Характеристика знойности погоды. Зависит от высоты солнца над горизонтом, облачности и скорости ветра. Ночью, в пасмурную погоду, а также при ветре 12 м/с и более поправка равна нулю.
P - Атмосферное давление - приведенное к уровню моря атмосферное давление.
Po - Атмосферное давление - измеренное на уровне метеостанции атмосферное давление.
Tmin - Минимальная температура - минимум температуры воздуха на высоте 2 м над землей.
Tmax - Максимальная температура - максимум температуры воздуха на высоте 2 м над землей.
R - Количество осадков - Количество выпавших осадков за период времени, мм. При наведении курсора мыши на число - период времени, за который выпало указанное количество осадков.
R24 - Количество осадков - Количество выпавших осадков за 24 часа, мм.
S - Снежный покров - Высота снежного покрова, см. При наведении курсора мыши на число - состояние снежного покрова и степень покрытия местности в баллах.